RH
26 27 28 31 34 35 38 40 38 32 27 23 19 16 14 14 17 23 19 9 3 3 4 5 4 3 2 2 2 2 2 2 2 1 2 2 2 2 2 3 2 2 3 3 3 3 3 3 3 3 3 5 6 8 10 12 13 15 16 17 17 13 11 11 10 9 9 9 9 8 8 8 9 9 9 9 9 9 9 9 9 9 10 11 11 11 11 10
35 33 33 35 36 37 40 40 39 35 25 19 15 11 9 7 10 17 15 6 3 4 4 4 3 3 2 2 2 2 2 1 2 2 2 2 2 3 2 3 3 3 3 3 4 4 4 4 4 4 4 4 6 7 9 11 12 13 13 14 15 11 10 10 8 8 8 8 8 8 8 9 9 9 9 9 9 9 8 9 9 9 9 10 10 10 10 10
40 40 40 41 41 40 40 40 37 31 22 17 13 9 7 5 7 10 8 4 3 4 4 4 3 2 2 2 2 2 2 1 2 2 2 3 3 3 3 3 3 3 4 4 4 4 4 4 4 4 4 5 5 6 8 10 11 12 12 12 12 10 9 9 8 8 7 8 8 8 9 9 10 10 9 9 9 8 8 9 9 9 9 10 10 10 10 11
39 41 44 45 45 43 42 39 32 24 21 18 10 7 7 5 6 6 4 4 4 5 4 3 3 2 2 2 2 2 2 2 2 2 2 3 3 3 3 3 4 4 4 5 5 5 4 5 5 5 5 5 6 6 7 8 9 11 11 11 9 8 8 7 8 8 7 8 8 9 9 9 10 9 9 9 9 9 9 9 9 9 9 9 9 10 11 11
40 38 45 49 47 46 44 36 28 23 23 19 9 6 7 5 6 5 5 5 5 5 3 3 2 2 2 2 2 2 2 3 2 3 3 3 3 3 4 4 4 4 5 5 5 5 5 5 5 5 6 6 6 6 7 8 9 10 10 8 7 7 7 7 8 8 8 9 9 10 10 10 10 9 10 9 9 11 11 10 9 10 10 9 10 10 11 12
47 39 41 47 46 45 42 34 30 28 25 19 10 6 7 6 6 6 6 5 4 4 2 2 2 2 2 2 2 2 2 5 5 3 3 3 4 4 4 5 5 5 5 5 5 5 5 5 5 6 6 6 6 7 7 8 9 10 9 7 7 7 7 8 8 8 9 9 10 10 10 10 10 10 10 10 11 13 12 11 11 10 10 10 10 10 11 13
51 44 38 42 45 44 41 35 32 28 24 18 9 6 8 6 6 7 7 5 3 3 2 2 2 2 2 2 2 2 3 5 6 4 3 4 4 5 5 5 5 5 5 5 5 5 5 6 6 6 6 7 7 7 7 8 8 8 8 7 8 8 8 8 8 9 9 10 10 11 11 11 11 11 10 11 13 13 12 11 12 11 11 11 11 11 12 13
52 48 39 41 45 44 38 31 26 23 20 14 7 7 7 7 6 6 7 5 2 2 2 2 3 2 3 3 2 3 3 4 4 4 4 4 5 5 5 6 6 6 6 6 6 6 6 6 6 7 7 7 7 7 7 7 8 8 7 8 8 8 8 8 9 9 10 11 11 11 11 11 11 11 10 12 14 13 12 13 12 12 12 11 11 11 12 13
55 49 39 42 45 38 29 21 19 18 14 9 7 7 6 6 4 4 6 5 2 2 2 2 3 3 3 3 2 3 3 4 4 4 4 5 5 6 6 6 6 6 6 6 6 6 6 6 6 7 7 7 7 8 7 8 8 7 8 8 8 8 9 9 9 10 10 11 11 11 11 11 12 12 11 12 13 13 13 14 14 13 12 12 11 11 12 13
58 47 39 42 39 27 17 15 17 15 10 7 6 6 5 5 3 4 6 5 3 2 3 3 4 4 3 3 3 3 4 4 4 4 5 6 6 6 6 6 6 6 6 6 6 6 7 7 7 7 8 8 8 8 8 8 8 8 8 8 8 9 9 10 10 10 11 11 12 12 12 12 12 11 11 12 13 14 14 15 15 14 13 12 12 12 13 13
56 43 39 38 28 18 16 16 16 12 8 6 5 4 4 3 3 4 6 6 4 2 3 3 3 3 3 3 3 3 4 4 4 5 6 6 6 7 7 7 6 6 6 6 6 7 7 7 7 8 8 8 8 8 8 8 8 8 8 8 9 9 9 10 10 11 12 12 12 13 12 11 10 11 12 13 13 14 15 15 16 16 14 13 13 13 14 14
45 39 38 31 21 18 18 15 12 9 7 5 3 3 3 3 3 3 4 4 4 3 3 3 2 3 2 3 3 4 4 4 5 6 6 7 7 7 7 7 7 6 6 7 7 7 7 7 7 8 8 8 9 9 9 9 9 9 9 9 9 10 10 10 11 12 12 12 13 14 12 8 8 10 12 13 14 15 15 16 18 18 17 15 14 14 15 16
36 35 31 22 19 21 17 11 10 8 6 4 3 3 3 3 3 3 3 3 3 3 3 2 3 2 3 3 3 4 4 4 5 6 7 7 7 8 7 7 7 7 7 7 7 7 7 7 7 8 8 8 9 9 9 9 9 9 9 10 10 10 10 11 12 12 12 13 13 15 14 8 7 11 12 14 15 15 16 17 20 19 19 18 16 15 16 17
27 24 21 20 23 23 16 9 8 7 5 3 3 3 3 3 3 3 3 3 3 3 3 3 3 2 3 3 3 4 4 5 6 6 7 7 8 8 7 7 7 7 7 7 7 8 8 7 7 8 8 8 8 9 9 9 9 9 10 10 10 11 11 11 12 12 13 14 14 16 16 9 8 11 12 14 15 15 16 18 20 21 21 20 17 16 17 19
16 13 17 23 22 20 13 7 5 5 4 3 2 3 3 3 3 3 3 3 3 3 3 3 3 3 3 3 4 4 5 6 6 7 7 8 8 8 8 7 7 7 7 7 8 8 8 8 8 8 8 8 8 9 10 10 9 10 11 11 11 11 12 12 12 13 14 15 14 16 17 11 9 11 12 14 15 16 16 17 19 20 20 20 19 17 18 20
10 9 12 15 13 11 8 4 4 4 4 3 3 3 3 3 3 4 4 3 4 4 4 4 4 4 4 5 5 5 6 6 7 7 7 8 8 8 8 7 7 7 7 8 8 8 8 8 8 8 8 8 9 9 10 10 10 10 11 12 11 12 13 12 13 14 15 16 15 16 17 12 10 11 12 14 15 16 16 15 16 17 19 19 18 18 19 21
8 8 8 8 7 6 4 3 3 4 4 3 3 3 3 4 4 4 4 4 4 4 4 5 5 5 5 6 7 7 7 7 7 7 8 8 8 8 8 7 8 7 8 8 8 9 9 9 9 9 9 9 9 10 11 13 13 12 12 12 12 13 13 14 14 15 16 16 16 16 16 13 11 11 12 14 16 17 16 14 15 15 17 18 18 19 20 22
8 6 5 5 5 4 4 4 5 5 5 5 5 5 5 5 4 4 4 4 4 4 4 5 6 6 7 7 8 8 8 7 8 8 8 8 8 8 8 8 8 8 8 9 9 9 9 9 9 9 9 10 10 10 12 14 13 12 12 12 13 14 14 14 16 16 17 17 17 17 17 15 12 11 12 14 16 16 15 14 14 15 17 18 19 21 22 23
11 6 4 4 4 5 5 5 5 5 6 6 6 6 7 6 6 5 5 5 5 5 5 6 7 7 8 8 8 9 8 7 7 8 8 8 8 8 8 8 8 8 9 9 9 10 10 10 10 10 10 10 10 10 11 11 11 12 13 13 15 15 14 14 17 17 17 18 17 17 18 17 14 12 13 15 15 14 14 13 14 15 17 18 19 21 22 22
11 9 7 4 4 5 4 5 6 7 7 7 7 7 8 8 7 7 6 6 6 6 6 6 6 7 8 8 8 9 9 8 7 8 8 8 8 8 8 9 8 9 9 10 10 10 10 10 10 10 10 10 10 10 11 11 12 13 13 14 15 15 15 15 17 17 17 19 18 17 20 18 15 13 13 15 15 14 14 14 15 16 17 18 19 21 22 23
7 9 8 5 5 4 5 6 7 8 8 8 8 8 8 8 8 8 7 7 7 7 7 7 7 7 8 8 8 9 8 8 7 8 8 8 8 8 8 9 9 9 10 10 10 9 10 10 10 11 11 11 11 11 12 12 12 13 14 15 15 15 15 16 17 17 18 20 19 18 20 18 15 13 13 15 15 16 16 17 17 18 18 19 21 23 24 24
8 7 6 5 4 4 7 8 8 9 8 8 7 7 8 8 8 8 7 8 8 8 8 8 7 7 8 8 8 8 8 8 7 7 7 7 8 8 8 8 8 9 9 9 9 9 10 9 10 11 11 12 12 13 13 13 14 14 15 15 16 16 16 17 17 17 19 20 20 19 19 18 16 13 13 16 17 18 18 18 19 19 20 22 24 25 24 24
11 6 5 4 5 5 7 9 9 9 8 7 6 7 7 7 8 8 7 8 7 7 7 7 8 8 8 8 8 8 8 8 8 8 7 8 8 8 8 8 8 8 9 9 9 10 10 10 10 11 11 12 13 14 15 15 15 15 15 16 17 16 18 20 19 19 21 21 22 21 20 20 17 13 14 17 18 19 19 19 21 22 23 24 26 26 25 26
15 8 5 4 5 5 7 8 9 9 8 7 7 7 6 6 7 7 7 7 6 7 7 8 9 9 8 8 8 8 8 8 8 8 8 8 8 8 8 8 8 8 9 9 9 10 10 10 11 11 11 12 13 14 15 16 16 15 16 16 17 17 19 21 21 21 22 22 23 21 21 21 18 14 15 18 19 20 20 19 21 23 25 26 27 28 28 29
20 12 6 5 5 5 6 7 8 8 7 7 7 7 6 6 6 6 7 7 6 8 10 11 11 10 11 10 10 9 9 8 8 8 8 8 8 8 9 9 9 9 9 10 10 10 10 10 11 11 12 13 14 15 16 17 17 17 16 16 18 19 19 21 22 23 25 27 27 25 25 24 21 17 16 19 21 21 21 21 23 25 26 28 28 29 30 31
16 11 6 5 4 4 5 6 7 6 7 8 7 6 6 6 6 6 7 7 8 10 12 14 13 13 14 13 13 12 11 10 10 9 9 9 10 10 10 10 10 10 10 10 10 10 11 11 12 12 13 14 14 15 16 17 19 19 17 17 19 19 20 22 23 26 29 30 29 28 30 30 26 20 17 20 22 22 24 24 25 27 28 29 30 31 32 33
9 8 6 5 5 5 5 7 7 6 8 8 6 6 5 5 5 5 8 9 10 10 13 14 14 14 14 14 13 12 11 11 10 9 9 10 10 10 10 9 10 10 10 11 11 11 11 12 12 13 13 14 14 15 17 18 20 20 18 19 21 20 22 23 25 28 29 30 30 29 30 34 32 22 17 22 24 24 26 27 28 29 30 32 33 34 36 37
8 8 6 5 5 5 6 7 7 8 9 8 7 6 4 4 5 5 9 11 9 11 14 14 13 13 12 12 12 11 11 10 10 10 9 9 9 9 10 9 10 10 10 11 12 11 11 12 13 13 13 14 14 16 17 19 21 21 20 21 22 22 23 25 27 28 29 33 35 32 31 34 32 23 19 23 25 27 29 30 31 32 33 34 35 36 39 40
10 11 8 6 6 6 7 7 8 8 8 8 7 5 4 4 4 6 10 9 10 14 15 13 12 11 11 11 11 11 10 10 10 9 9 9 9 10 10 10 10 10 10 11 12 12 12 12 13 14 14 14 15 17 18 20 21 22 22 23 23 24 25 26 27 28 32 37 38 34 33 32 28 23 22 23 26 29 31 31 33 33 34 34 35 37 40 40
12 13 9 7 7 6 7 7 7 7 6 7 7 5 4 3 5 9 10 8 10 13 13 13 12 10 10 10 9 10 10 10 9 9 10 10 10 10 11 11 11 11 11 11 12 12 12 13 14 14 15 15 16 18 19 20 22 23 23 24 24 25 25 25 27 30 34 36 34 32 34 33 28 24 23 24 27 30 31 33 34 34 33 34 36 38 39 41
10 10 8 8 7 6 6 7 7 7 7 8 7 5 4 3 5 9 9 8 10 12 12 12 11 10 10 9 9 9 9 9 9 10 10 10 11 11 11 12 12 12 13 12 13 14 14 14 14 15 16 17 18 20 20 21 22 23 24 25 27 28 26 27 30 33 32 31 33 33 33 35 32 26 24 27 30 32 33 34 32 33 33 34 37 39 41 43
8 7 7 8 7 6 6 6 7 7 8 8 7 6 4 3 6 8 8 8 11 12 11 11 11 10 9 9 9 9 9 9 10 11 11 11 12 12 13 13 13 14 15 15 15 15 15 15 15 16 18 19 21 21 21 22 22 24 25 28 31 29 28 29 29 30 29 30 35 35 35 36 32 26 27 30 33 34 34 34 32 33 33 35 38 40 41 43
7 6 7 8 8 8 7 6 7 7 8 8 7 5 4 5 6 7 7 8 9 10 10 10 10 9 9 9 9 10 10 11 11 12 12 12 13 13 13 14 14 16 17 17 17 18 17 17 17 19 19 20 21 22 23 24 24 26 27 31 32 29 32 35 30 29 31 33 36 37 38 37 31 27 29 31 34 35 34 34 35 35 36 38 40 41 41 42
7 6 7 8 8 8 7 7 8 8 8 7 6 5 4 5 6 5 6 8 8 9 9 9 9 9 10 10 11 12 12 12 13 13 13 13 14 13 14 15 16 17 18 19 20 21 20 19 19 19 19 20 21 22 24 25 26 29 28 31 33 31 34 37 33 34 37 38 40 42 40 35 29 28 29 32 35 36 34 35 36 36 38 40 41 41 42 43
7 6 7 7 8 8 8 8 8 8 7 6 5 5 4 5 5 6 8 8 9 9 9 9 9 9 10 11 12 13 13 14 13 13 13 13 14 14 15 16 17 18 20 20 21 23 23 20 19 20 20 21 22 23 24 25 28 30 29 31 34 33 33 35 35 37 41 43 44 42 37 31 29 28 30 34 37 36 35 37 36 37 39 41 42 41 42 45
6 7 8 7 8 8 8 8 7 6 6 5 5 5 6 6 7 8 9 9 10 10 10 10 10 10 11 12 13 13 13 14 13 13 13 13 14 15 17 18 19 19 20 22 23 24 24 22 20 22 22 22 24 24 24 26 28 30 32 33 34 34 35 37 37 38 41 43 42 38 35 32 30 31 33 35 36 36 37 39 39 38 39 41 41 41 44 47
7 8 8 9 9 7 7 6 6 6 6 7 7 7 7 8 8 9 10 10 10 10 10 11 11 11 12 12 13 13 13 13 13 13 13 14 15 17 18 18 18 20 21 23 24 24 25 24 22 23 23 24 25 25 25 26 28 30 33 34 33 35 38 40 39 38 39 41 39 36 34 33 32 34 35 35 35 36 37 38 38 38 39 41 41 43 47 47
8 9 9 8 6 6 7 7 8 8 8 8 8 8 8 9 9 10 10 10 10 10 11 11 12 12 13 13 13 13 13 13 13 14 14 14 15 17 18 17 19 21 22 24 24 25 26 27 25 23 23 24 25 26 26 25 27 30 32 33 35 37 39 41 41 40 41 43 41 38 36 34 34 35 36 35 34 36 37 37 38 39 41 42 43 47 50 44
9 9 7 6 6 7 8 8 9 8 8 9 9 9 9 9 9 9 9 9 9 9 10 11 12 12 12 13 13 12 13 13 13 14 14 14 15 16 16 18 21 22 23 24 24 25 27 29 28 25 23 25 26 26 27 27 28 31 33 34 36 38 39 41 42 41 43 45 44 44 42 37 35 36 36 37 37 37 40 41 43 44 44 45 48 52 49 39
9 7 6 7 8 9 9 9 8 8 8 8 8 8 8 8 8 7 7 8 8 9 10 10 11 12 12 12 13 13 13 13 13 13 14 14 15 16 18 20 22 22 22 23 23 25 28 30 30 26 23 25 26 26 27 28 31 34 36 37 37 39 41 43 44 42 43 44 44 47 46 38 37 39 38 39 41 42 45 46 47 46 46 50 54 51 43 36
6 6 7 9 9 9 9 8 8 8 7 7 7 7 7 7 7 7 7 7 8 8 9 9 10 10 11 11 12 13 13 12 12 12 14 15 15 17 19 20 20 21 22 22 23 25 27 30 31 28 25 25 25 24 25 28 31 34 36 37 37 39 42 45 46 44 45 46 43 47 49 42 39 40 40 42 45 46 48 48 47 47 50 53 50 43 37 33
6 8 9 9 8 8 8 7 8 7 7 7 7 6 6 6 6 6 6 7 7 7 7 8 8 9 10 11 11 12 12 11 11 12 14 15 15 17 18 19 20 20 21 22 22 24 26 30 32 28 24 24 23 22 24 26 30 33 35 36 37 40 43 45 47 47 47 47 45 49 55 49 42 41 42 44 46 48 49 48 48 49 48 44 39 34 30 25
9 9 8 7 7 7 6 6 6 5 5 5 5 5 4 4 5 5 5 6 6 6 6 7 7 8 9 10 10 10 11 11 11 12 13 14 15 17 17 18 19 19 20 22 22 23 26 29 32 29 24 22 21 21 25 28 31 34 36 37 40 42 44 46 49 50 52 51 48 50 54 51 44 42 44 47 48 49 50 49 49 46 38 32 28 25 23 20
8 7 6 6 5 4 5 5 4 3 3 3 3 4 3 3 4 4 4 5 5 5 6 6 7 7 7 8 9 9 11 12 12 11 12 14 14 15 16 17 18 19 20 21 21 22 24 27 31 32 30 28 25 23 27 31 33 35 37 40 43 45 48 51 52 54 56 56 52 50 50 47 44 45 46 47 47 48 47 47 44 37 30 26 25 22 21 22
5 5 5 4 3 4 4 3 3 3 3 3 3 4 3 3 4 4 4 4 5 5 6 6 6 6 7 8 8 9 10 11 12 11 12 13 14 14 15 16 17 18 18 19 20 22 24 25 28 32 34 33 29 27 29 33 35 37 39 41 45 48 51 54 57 59 59 57 55 53 49 47 48 49 47 46 48 48 45 44 41 32 24 21 22 23 24 25
3 4 4 3 3 4 3 3 3 3 3 3 3 3 3 3 4 4 5 5 5 5 5 6 6 6 7 8 8 9 9 10 11 11 11 13 14 14 15 16 16 17 17 19 20 23 25 24 24 29 33 31 31 32 34 37 39 40 40 41 44 48 50 53 59 62 59 58 60 56 53 53 52 48 46 49 52 49 45 45 40 27 21 21 23 25 24 23
3 3 3 2 3 3 3 3 3 3 3 3 3 3 3 4 4 4 5 5 5 5 5 6 7 7 8 8 8 8 8 9 10 10 11 13 13 14 15 15 15 16 17 20 22 24 26 24 22 26 29 30 32 36 39 42 43 43 42 43 46 50 51 52 55 56 57 62 64 58 57 57 50 43 46 51 51 47 46 45 35 24 22 24 26 25 23 21
3 3 2 3 3 3 3 3 3 4 3 3 4 4 4 4 4 4 5 5 6 6 7 7 7 7 7 7 8 8 8 9 9 10 11 12 12 13 14 14 15 17 19 21 23 25 26 26 24 27 30 32 35 38 41 43 43 44 46 50 52 53 53 52 51 53 60 67 63 53 51 51 44 42 45 47 46 45 43 36 27 24 25 27 27 24 21 18
3 3 3 3 3 3 3 4 4 3 3 4 4 4 5 5 5 6 6 6 6 7 7 7 7 6 7 7 8 9 9 9 10 10 11 11 13 14 14 15 17 18 20 22 23 26 29 30 29 31 32 33 35 38 40 42 45 48 51 54 57 57 55 55 54 55 59 60 53 43 40 41 41 41 41 40 40 39 34 28 27 29 30 29 27 22 19 16
3 3 3 3 3 3 3 3 4 4 4 5 5 5 6 6 7 7 7 7 7 7 7 7 7 7 7 8 8 9 10 10 11 11 12 13 14 15 17 18 19 20 21 22 24 27 33 35 33 36 36 33 34 38 41 44 47 49 52 57 60 59 58 58 57 56 56 51 43 38 36 38 40 39 37 35 34 31 29 29 32 35 33 27 21 18 15 13
3 3 4 4 4 5 5 6 6 7 7 8 8 9 9 9 9 8 8 9 9 9 9 9 9 9 8 9 9 9 10 11 12 13 14 16 17 19 20 21 21 22 22 24 26 29 35 37 36 41 42 37 35 38 42 45 47 50 56 59 60 61 62 61 58 57 55 46 38 36 36 36 37 36 35 34 33 32 31 30 32 34 29 20 16 16 14 14
7 7 9 10 10 10 11 12 12 12 13 13 13 13 13 13 12 12 12 13 12 12 11 11 10 10 9 10 10 11 12 13 15 17 19 21 22 23 24 23 23 24 24 27 31 33 37 39 40 47 50 43 37 40 43 42 45 53 60 61 62 64 64 60 58 58 55 45 35 33 33 35 37 38 36 36 38 38 33 27 26 25 20 15 14 15 16 18
Wind_Speed
7 7 6 6 6 5 5 6 7 8 9 10 10 11 10 10 10 9 9 10 9 8 5 3 2 1 3 4 5 5 5 4 3 2 2 2 2 2 1 1 0 1 0 1 1 1 2 2 2 2 2 2 3 3 4 5 6 7 7 8 9 8 8 7 7 7 8 9 9 10 11 12 13 14 14 15 17 17 18 19 20 20 20 21 21 21 22 22
7 7 7 7 7 7 7 7 9 9 10 11 12 12 11 10 9 9 9 9 8 6 4 3 2 3 3 4 4 5 4 3 2 1 1 2 3 2 2 1 1 1 1 1 1 1 2 3 2 2 2 3 4 4 5 6 6 7 7 8 9 8 7 7 7 7 8 9 10 11 12 13 14 14 15 16 17 18 19 19 20 21 21 21 22 23 23 23
8 7 7 7 7 7 8 9 10 10 10 12 14 13 12 10 8 8 8 7 6 5 4 3 3 3 3 4 4 4 3 2 1 0 1 2 3 3 2 2 2 2 2 1 1 1 2 3 2 3 3 4 4 4 5 6 6 7 7 8 9 8 8 8 8 8 9 10 11 12 13 14 15 15 16 17 18 19 18 18 19 21 21 22 23 24 24 24
9 8 8 7 7 7 8 9 9 10 11 14 15 13 11 8 7 7 6 5 5 4 3 4 4 4 4 4 4 3 2 1 2 1 2 2 3 3 3 3 3 2 2 2 2 2 2 2 2 2 3 4 5 5 6 6 7 7 7 9 9 8 8 8 8 9 10 11 12 13 14 15 16 16 17 18 19 19 17 17 20 20 21 23 23 24 25 25
10 10 8 6 6 7 8 8 9 10 12 14 14 11 9 7 6 5 4 4 4 4 4 4 5 5 5 4 4 3 1 3 3 1 2 2 3 3 3 3 3 3 3 3 3 2 3 3 3 3 4 5 5 5 6 6 7 8 8 8 8 8 9 9 9 10 11 12 13 14 15 16 17 17 17 19 19 18 17 19 20 20 21 23 23 24 25 24
10 10 8 6 7 7 7 7 8 10 12 14 13 10 8 6 5 4 3 3 3 4 4 5 5 5 5 4 4 3 2 3 3 2 2 2 3 3 3 4 4 4 4 4 4 3 3 4 4 5 6 6 6 6 6 6 7 9 9 8 8 9 9 10 10 11 12 13 14 15 16 16 18 18 19 20 18 18 20 20 21 21 22 23 23 24 24 24
10 10 9 7 7 7 6 7 8 9 11 13 11 8 7 5 4 4 3 3 4 5 5 5 5 5 5 5 4 4 4 5 4 3 2 3 3 4 4 4 4 5 4 5 4 4 5 5 5 6 7 7 7 6 6 6 7 9 10 9 9 9 10 11 11 12 13 14 15 16 16 18 19 20 21 19 17 19 21 20 21 22 23 23 23 24 24 24
10 9 8 7 7 6 6 7 8 8 10 11 9 7 6 4 4 4 3 3 5 6 6 6 6 6 6 5 5 5 6 5 4 3 3 3 4 4 4 4 4 5 5 5 5 6 6 6 6 7 8 8 7 7 6 7 8 9 10 9 9 10 11 11 12 13 14 15 16 17 18 19 21 22 22 18 16 19 20 20 21 22 22 22 22 22 23 24
8 8 8 7 5 5 6 6 7 8 10 9 7 6 6 4 4 4 4 4 6 6 6 6 6 6 6 5 6 5 5 4 3 3 3 3 4 4 5 4 4 5 6 6 6 7 7 7 7 8 9 9 8 7 7 7 8 8 9 10 10 11 12 13 13 14 15 16 18 18 20 22 23 25 21 16 17 20 20 21 21 21 21 21 21 21 22 23
7 9 8 6 4 5 5 6 7 8 9 8 7 6 4 3 2 3 4 5 6 6 6 5 5 6 5 6 5 4 5 4 3 3 4 4 4 4 5 5 5 6 7 8 8 8 8 8 9 9 10 10 8 8 7 8 9 9 9 10 11 12 13 14 15 15 16 17 19 20 22 25 26 25 20 17 19 20 21 23 21 21 21 20 20 19 21 23
6 8 6 4 3 4 5 7 8 8 8 7 6 5 4 3 2 2 3 5 6 6 6 6 6 6 6 6 5 4 5 5 3 4 4 4 4 4 4 5 6 7 8 9 9 9 9 9 10 10 10 9 9 8 8 8 9 9 10 11 12 14 15 15 16 16 17 19 21 22 24 26 25 22 19 19 21 21 22 23 21 20 20 20 21 20 21 22
5 5 4 3 4 4 6 7 7 7 6 5 4 3 4 3 2 2 3 4 5 6 6 6 6 7 6 6 5 5 5 4 4 4 4 4 4 4 4 5 7 8 9 10 10 10 10 10 10 11 10 10 9 8 8 8 9 10 11 12 14 15 15 15 15 16 18 21 22 23 25 26 23 20 21 21 21 22 24 24 23 21 21 22 23 23 22 22
4 3 3 4 4 5 6 7 6 6 5 4 2 2 3 3 2 3 3 4 4 5 6 7 7 7 7 6 5 5 5 5 5 4 4 4 4 4 5 6 8 9 10 11 11 11 11 11 10 11 11 11 10 9 9 9 10 11 12 14 14 15 16 15 15 18 20 21 22 22 24 25 24 22 23 22 22 24 26 26 25 24 23 24 24 23 22 22
2 3 4 4 5 6 6 6 5 5 4 3 2 2 3 3 3 4 4 4 5 6 7 8 8 7 6 6 6 5 5 6 5 5 4 4 4 5 6 7 8 10 12 12 12 11 11 11 11 11 11 11 10 9 10 11 12 13 13 14 14 15 16 17 17 19 20 21 23 22 23 25 26 25 25 23 25 27 28 28 27 26 24 24 23 23 23 23
3 4 4 4 5 6 7 6 5 4 4 3 3 3 4 4 4 5 5 5 5 6 7 7 7 6 5 5 5 5 5 5 5 5 5 4 5 6 7 9 10 11 12 13 13 12 12 11 11 11 10 10 9 10 11 12 14 13 13 14 15 16 18 19 19 19 20 22 24 23 24 26 25 26 27 26 27 28 29 30 29 27 25 24 24 24 24 24
3 4 4 5 5 6 6 5 3 3 4 3 3 4 4 5 5 5 5 4 5 5 6 6 5 5 4 4 4 4 5 5 6 6 5 5 5 7 8 10 11 12 12 13 13 12 11 11 11 10 10 10 9 10 12 14 15 13 12 14 17 18 20 21 19 20 22 23 25 25 26 28 26 25 27 28 29 29 31 31 30 28 26 25 25 25 25 24
2 2 4 4 4 4 4 3 2 2 3 3 3 4 4 5 5 5 5 5 5 5 5 6 5 5 5 4 4 5 5 5 6 6 6 6 6 7 9 11 12 13 13 13 13 12 11 11 11 11 10 10 10 10 11 13 12 13 14 16 18 19 21 22 21 22 23 24 26 28 31 30 27 26 28 30 30 31 32 31 29 27 25 24 24 25 24 23
4 3 3 2 2 2 2 2 2 2 2 3 3 4 4 3 3 3 4 5 5 5 5 5 5 5 5 4 4 5 6 6 6 6 7 6 7 8 10 11 13 13 13 13 13 12 12 12 11 12 11 10 11 11 12 13 12 14 17 18 20 21 21 22 22 23 25 26 26 29 33 31 28 28 28 31 33 33 31 28 26 24 22 22 23 24 23 22
4 4 3 3 3 3 3 3 3 4 4 4 4 4 3 3 3 4 4 5 5 5 4 4 5 5 6 5 5 6 6 6 6 7 7 7 8 9 10 12 12 13 13 13 13 13 13 13 12 12 12 12 12 13 15 16 16 17 18 19 20 22 23 23 22 24 26 28 28 29 32 33 33 30 29 33 34 29 24 20 19 20 20 21 22 23 21 18
4 4 3 3 3 3 3 4 4 5 5 5 5 5 6 6 5 5 5 6 6 6 5 6 6 7 7 6 7 7 7 7 7 7 8 8 9 9 10 11 12 12 13 14 14 14 14 14 13 13 13 13 14 14 16 17 18 18 19 20 21 23 25 23 24 26 26 28 29 29 32 35 34 33 33 30 24 20 18 16 17 17 18 20 19 18 16 12
5 4 4 4 3 3 2 3 3 4 5 6 7 7 7 7 6 6 7 7 7 7 7 7 7 7 7 7 7 8 7 7 7 8 8 9 9 10 11 11 12 13 13 14 15 14 14 15 15 14 14 14 14 15 16 17 18 19 20 21 23 25 25 25 26 27 26 29 31 32 35 35 34 34 29 21 18 20 20 18 18 19 18 17 14 11 10 9
6 5 5 4 4 3 2 2 2 3 5 6 8 8 8 8 7 8 9 8 8 8 7 7 7 7 7 7 8 8 8 7 8 8 9 10 10 11 11 12 13 14 14 15 15 16 16 16 15 14 14 15 15 16 16 17 18 19 21 22 24 25 26 26 26 27 27 30 34 35 37 38 34 28 19 17 22 23 20 20 20 19 16 12 8 7 7 7
7 6 5 4 5 4 3 2 3 5 6 7 8 9 9 9 8 9 9 10 9 9 8 8 8 8 8 7 7 8 7 7 8 9 9 10 11 12 13 14 14 15 15 15 16 17 17 16 16 16 16 17 17 17 17 18 19 20 22 23 25 26 25 25 27 29 28 31 35 35 40 38 22 16 21 23 24 21 21 22 19 16 13 9 8 7 7 8
7 7 5 5 5 5 4 4 5 7 7 9 9 9 10 10 10 10 10 11 11 9 8 8 8 8 8 8 8 8 8 8 9 10 10 11 12 13 14 14 15 15 15 16 16 17 17 18 18 18 18 18 18 18 17 19 20 21 22 23 26 25 24 26 29 31 30 32 31 31 37 24 3 13 30 24 19 21 20 17 14 12 10 8 9 9 9 10
7 7 6 6 5 5 5 5 7 8 9 10 10 10 11 11 11 11 11 12 9 6 6 6 7 6 6 7 7 7 8 8 9 10 10 11 12 13 13 14 15 15 15 16 17 18 18 18 18 17 17 18 18 19 19 20 21 23 23 23 24 24 25 27 28 31 29 24 22 24 24 8 3 20 29 17 17 18 14 13 11 9 8 9 11 10 11 14
7 8 7 7 6 6 6 6 7 8 9 10 11 11 11 11 11 11 12 11 5 3 6 6 5 5 6 5 5 6 7 7 8 9 10 11 11 12 12 13 14 15 15 16 17 18 18 17 17 17 18 19 20 21 20 20 21 23 24 23 23 25 26 27 28 28 23 18 23 26 15 11 18 23 18 15 16 12 12 14 11 9 9 9 10 12 15 17
7 8 8 8 7 7 7 6 7 8 9 11 11 11 11 12 12 11 11 7 2 3 7 6 6 6 6 6 6 8 7 7 9 10 10 10 11 11 13 14 14 15 15 16 16 16 17 17 18 19 20 21 21 21 20 20 21 23 25 24 24 26 26 27 28 27 27 29 32 28 15 14 18 15 14 16 12 10 15 14 10 9 7 5 9 13 16 18
8 8 8 9 9 8 7 7 8 8 9 11 12 12 12 12 12 11 8 3 2 5 6 5 6 6 5 6 7 7 7 7 9 9 9 10 11 12 14 14 15 15 16 16 17 18 19 19 19 20 21 21 21 21 20 20 21 23 25 24 25 27 27 28 29 28 31 28 19 16 12 9 9 8 15 15 10 15 18 12 9 6 2 4 8 12 14 15
9 10 10 10 9 8 8 7 8 9 9 11 12 12 12 11 11 10 4 1 3 5 5 4 6 7 7 7 7 7 7 8 9 10 11 12 12 13 14 14 15 16 16 17 18 19 18 18 18 19 20 20 20 20 20 20 21 23 24 24 25 26 27 28 28 27 25 15 8 9 6 4 6 6 11 14 14 18 16 10 7 3 2 6 10 12 13 15
9 11 12 11 11 9 8 8 9 10 10 11 11 11 11 11 9 7 2 2 5 5 3 3 6 9 10 9 9 8 8 9 10 11 11 12 12 13 14 15 15 16 16 17 17 17 17 17 18 18 19 19 19 20 20 20 20 21 22 24 25 25 26 26 24 20 13 5 3 4 4 2 4 5 10 14 15 15 13 8 5 4 7 10 13 14 15 17
9 11 13 12 12 10 9 9 9 10 10 11 11 11 11 10 8 4 2 3 6 3 2 5 10 12 12 12 11 9 9 10 10 11 11 12 12 12 13 13 14 15 15 16 15 15 16 16 18 19 18 18 18 18 18 17 18 18 19 21 21 19 19 17 13 7 4 2 1 2 1 2 5 11 16 13 12 16 13 7 7 8 11 14 15 15 17 21
10 12 13 13 12 10 9 9 10 10 10 11 12 12 12 10 5 3 4 6 5 3 5 10 12 13 13 13 12 10 10 10 10 10 10 10 10 11 12 12 13 13 12 13 15 16 17 16 15 14 13 13 13 13 14 15 15 15 15 16 14 11 9 6 4 1 3 2 2 2 1 5 14 19 14 12 15 14 7 7 9 10 14 16 16 18 22 26
11 13 13 12 11 10 9 9 10 10 10 12 12 12 11 7 3 4 6 6 6 7 10 12 13 14 14 14 12 10 10 9 8 8 9 10 11 11 12 13 14 12 10 13 15 14 12 12 11 10 10 9 9 11 13 14 15 16 16 14 9 5 5 5 4 3 4 3 2 4 6 8 13 11 6 13 14 5 6 7 9 12 16 17 18 22 27 31
12 13 13 12 10 10 9 9 10 10 11 12 12 12 10 6 5 7 8 8 9 11 12 13 15 15 13 12 10 8 7 7 7 8 10 11 11 12 13 13 12 10 10 12 11 8 7 9 9 10 9 9 11 14 15 16 18 17 15 11 8 6 5 5 4 4 6 7 7 8 6 6 7 6 10 16 8 7 7 10 12 16 17 17 21 28 32 33
13 13 12 11 10 9 10 10 11 12 12 12 11 10 8 6 6 8 9 10 11 12 13 14 15 14 12 10 7 7 8 8 9 11 11 11 13 14 12 10 9 9 10 9 9 8 7 7 8 8 10 13 17 18 17 16 15 12 10 8 8 9 8 9 11 12 13 11 7 8 9 11 14 15 16 13 11 10 11 12 14 17 18 19 26 33 37 34
13 11 11 10 10 10 11 11 12 12 12 11 10 9 7 6 7 9 10 10 12 13 14 14 13 12 10 7 6 8 10 11 12 13 12 12 13 11 8 7 9 11 11 10 9 8 6 7 9 12 15 17 16 14 14 14 12 11 12 11 12 13 11 12 14 13 12 9 5 6 9 15 19 16 10 13 14 12 12 13 15 20 22 25 32 38 38 33
11 10 10 10 11 11 11 12 11 11 10 9 9 8 8 7 8 9 10 11 13 13 14 14 12 9 8 8 8 10 12 13 13 13 13 14 11 8 6 9 11 12 11 10 9 9 10 13 15 15 15 14 12 13 15 15 15 14 14 14 14 12 9 7 7 6 7 7 5 5 10 16 15 7 8 14 16 16 17 18 23 27 29 31 36 39 34 30
10 10 11 11 12 11 11 10 10 9 9 8 8 7 7 8 8 9 11 12 13 13 13 12 10 8 9 10 12 13 13 13 13 13 14 12 8 7 9 12 11 9 8 10 11 12 14 14 14 13 12 12 14 16 17 16 15 15 15 16 13 9 6 4 4 5 5 5 4 4 8 15 15 8 9 15 18 20 23 26 28 30 32 35 39 36 31 31
11 11 12 12 11 10 10 9 9 8 8 7 7 7 7 8 9 10 11 12 12 12 12 10 9 10 11 13 15 14 13 13 14 14 13 10 8 10 12 11 8 8 11 14 13 14 14 11 9 12 14 16 18 17 16 16 16 16 16 16 13 11 10 8 8 6 4 6 7 3 4 10 13 10 11 15 18 22 25 26 28 31 35 38 37 33 32 35
11 12 11 11 10 10 9 9 8 8 8 7 7 7 8 9 9 10 11 12 12 11 11 11 11 12 13 13 14 14 14 14 13 13 12 11 10 11 10 8 9 12 14 15 14 15 15 11 10 16 19 19 18 17 17 19 19 18 17 16 14 13 11 10 12 13 10 7 5 4 5 8 9 9 15 19 20 22 23 27 32 35 36 37 33 32 35 38
12 11 11 10 10 9 9 9 9 8 7 8 8 8 9 10 10 11 11 11 11 11 11 11 11 12 12 13 13 14 14 14 14 14 12 10 9 8 9 10 13 15 14 15 15 14 13 12 15 20 22 20 19 19 20 20 18 17 15 13 13 12 11 9 8 10 13 11 8 8 8 13 19 22 22 19 15 18 26 32 35 34 32 32 32 34 38 40
11 11 10 10 10 9 9 9 8 8 8 8 9 9 10 10 11 11 11 11 11 11 11 11 11 11 12 12 13 13 14 15 15 12 9 9 10 10 11 13 14 15 15 15 14 13 14 15 18 21 21 20 20 18 16 13 12 11 11 11 12 13 12 9 7 8 10 13 16 13 8 18 30 25 13 11 16 24 31 32 31 30 29 31 35 38 40 42
11 10 10 10 9 9 9 8 7 8 8 8 9 9 10 10 10 10 10 10 11 10 10 11 11 12 12 12 13 13 14 15 12 10 10 11 12 12 13 15 15 16 15 14 14 15 15 14 17 21 22 20 17 13 8 7 8 9 12 15 15 16 16 14 16 17 14 15 17 13 8 13 18 11 7 16 27 30 31 30 28 29 31 35 40 42 43 45
10 10 10 9 9 9 8 6 7 8 8 8 9 9 10 10 10 10 10 10 11 10 10 11 11 12 12 12 13 13 13 12 11 12 12 12 13 14 14 15 15 15 15 16 16 16 14 14 15 17 15 12 10 8 7 9 15 17 19 20 19 20 20 18 19 19 16 15 14 11 10 8 8 14 22 29 32 32 32 30 28 31 38 42 44 45 47 49
10 9 8 9 9 8 6 7 9 9 9 9 9 9 9 10 10 10 10 10 10 10 10 11 11 12 12 12 12 13 12 12 12 13 13 13 14 15 14 14 15 16 17 17 17 16 16 16 16 13 7 5 7 10 12 17 23 24 23 23 24 24 22 20 17 13 11 12 12 16 21 22 22 29 33 33 32 35 35 31 30 37 44 46 47 49 51 54
9 8 8 9 9 7 7 9 10 9 9 10 10 10 10 10 10 10 10 10 10 10 11 12 12 12 12 12 13 13 13 12 13 13 14 14 14 14 15 16 16 17 17 17 16 16 16 18 19 17 14 13 15 18 21 23 25 25 23 21 20 20 20 20 17 16 17 18 18 23 28 33 35 36 35 33 34 36 36 33 36 45 49 49 52 54 55 58
8 8 9 9 8 7 9 11 10 10 11 11 10 11 11 11 10 11 11 11 11 11 12 12 11 11 12 13 14 14 13 13 14 15 14 14 15 16 16 17 18 17 16 16 14 14 17 21 21 20 21 20 19 21 22 22 22 21 19 17 17 19 19 19 19 19 19 18 18 20 24 31 38 38 35 34 36 37 37 38 44 51 52 53 55 57 59 60
9 9 9 10 9 9 11 11 10 11 11 11 11 11 11 11 12 12 12 12 11 12 12 11 12 12 13 14 15 15 15 15 15 15 15 15 16 17 17 18 18 17 15 15 15 16 19 21 21 21 23 20 19 20 19 18 17 17 18 19 20 18 15 15 15 14 14 16 19 25 29 33 38 38 36 36 37 38 40 45 51 54 54 56 59 60 61 61
10 10 10 11 11 11 12 11 11 12 11 11 11 11 11 12 12 12 12 12 12 12 12 11 12 13 14 14 15 15 15 16 16 16 16 17 17 17 18 18 16 16 17 17 18 17 17 19 21 22 23 22 21 19 16 15 17 20 21 19 14 10 8 11 12 12 15 20 25 31 35 37 39 40 39 38 38 41 47 52 55 55 56 59 61 61 62 60
12 12 12 11 11 12 11 11 11 11 11 11 11 11 12 12 12 12 12 13 13 12 12 13 13 14 14 14 14 14 15 15 16 16 16 17 17 17 18 18 17 18 19 18 18 16 14 18 19 20 24 25 20 18 18 20 23 23 17 11 7 7 9 10 12 15 20 26 30 33 38 41 42 40 38 39 43 50 54 56 57 57 58 60 61 61 60 56
13 13 12 11 11 11 11 11 11 11 11 11 11 12 12 12 12 13 13 13 13 13 13 13 13 13 13 13 14 13 14 14 14 15 16 17 18 17 17 18 18 18 18 16 16 14 14 17 17 18 22 24 21 20 22 24 25 18 8 6 6 10 12 13 14 17 24 31 35 35 39 42 41 38 40 47 53 56 56 58 60 61 61 61 60 58 56 53
12 12 11 10 10 11 11 11 11 11 11 11 11 12 12 13 13 13 13 13 13 13 13 13 13 13 12 12 12 12 12 13 13 15 15 16 17 16 16 16 16 15 14 13 13 14 14 15 17 16 17 21 23 23 24 25 18 6 1 5 10 13 16 18 19 20 24 30 35 38 40 38 36 39 48 56 59 59 60 61 61 62 62 60 56 54 54 55
Wind_Direction
266 266 267 273 282 295 310 315 318 324 328 328 327 324 319 314 310 308 305 303 299 290 285 284 265 189 160 152 146 137 130 119 106 78 24 353 11 358 315 270 209 97 112 168 171 179 148 146 163 195 233 241 245 248 240 238 240 244 246 249 258 266 267 267 273 275 282 293 298 299 298 297 297 298 300 299 301 299 293 290 290 288 286 283 283 283 281 281
275 276 277 281 287 298 307 312 316 320 325 329 330 326 319 312 306 303 297 296 292 282 277 274 231 188 173 159 148 146 141 136 134 84 18 345 342 324 297 288 312 349 315 243 196 192 171 163 172 199 230 251 254 250 248 249 248 250 255 255 258 269 274 274 282 290 298 302 303 302 299 299 300 303 304 304 304 299 295 296 292 288 285 283 283 282 281 281
277 280 284 290 297 305 309 311 315 321 330 334 333 327 319 309 303 299 294 291 284 271 260 241 208 189 184 170 161 165 161 164 176 41 8 350 339 315 306 311 312 324 317 300 279 233 193 180 186 204 229 249 248 246 250 249 250 254 259 261 263 272 278 283 293 300 306 309 307 305 303 303 304 304 306 307 304 301 301 297 288 284 282 280 281 281 281 280
270 273 279 290 301 305 307 311 321 332 337 338 335 327 319 311 305 301 295 288 271 255 235 213 200 194 195 187 185 187 188 249 250 343 13 357 335 312 307 308 309 313 312 311 308 286 242 225 226 231 244 250 245 247 251 245 248 254 256 263 271 278 284 294 304 306 312 311 309 309 306 306 305 304 307 306 306 307 302 289 284 283 280 279 281 281 279 278
260 260 267 279 290 295 303 315 330 335 335 336 334 327 320 313 308 303 290 274 253 236 217 205 202 202 205 201 203 202 252 288 266 330 10 347 321 307 306 305 307 309 308 309 311 304 281 266 262 257 255 256 252 250 253 246 248 257 260 269 277 281 289 300 307 309 312 310 309 309 306 306 304 306 306 304 309 310 298 288 287 284 280 281 282 280 278 278
256 251 253 263 274 283 300 317 325 325 326 332 331 324 318 310 306 299 269 252 235 219 204 202 209 214 216 215 218 220 254 282 280 317 329 318 306 298 303 300 299 302 301 302 307 304 290 281 274 265 259 257 254 254 257 251 252 261 265 272 277 283 294 303 308 309 308 307 307 305 305 304 303 305 303 305 311 304 295 294 290 285 283 284 283 282 279 276
257 247 242 250 264 278 301 314 314 315 321 326 327 321 311 300 300 288 254 236 219 210 203 208 217 222 228 229 235 248 265 278 292 304 287 287 291 289 293 288 289 293 293 294 298 295 288 283 278 271 262 258 256 256 255 255 257 261 267 272 276 286 299 304 307 307 305 305 303 303 303 302 301 301 301 307 308 297 297 298 293 288 285 285 285 283 278 272
252 240 231 240 262 284 302 306 307 313 320 321 321 314 304 294 291 274 248 228 213 211 211 217 224 229 235 240 250 265 276 281 294 294 270 271 277 281 283 282 286 288 286 286 286 288 285 281 278 272 264 262 259 255 253 258 261 262 270 276 280 292 302 305 305 305 305 305 303 303 303 302 300 299 304 311 303 298 302 303 299 293 286 286 286 282 275 271
235 220 218 234 265 291 298 302 307 315 318 319 314 306 300 295 287 266 241 218 216 219 217 224 234 241 244 251 261 272 278 279 285 277 268 271 270 274 281 283 288 286 283 283 282 282 282 280 276 269 267 265 260 257 256 263 268 270 276 281 289 299 304 306 305 304 306 305 305 305 304 301 299 300 309 315 303 304 307 305 303 295 288 286 283 280 275 272
204 199 207 226 266 287 298 308 313 316 319 318 311 301 289 280 282 259 227 214 220 226 230 238 249 255 258 264 267 272 273 270 270 270 268 268 266 274 281 282 285 283 282 281 280 280 281 280 275 272 270 266 263 265 264 266 272 278 283 287 294 302 306 307 306 306 306 306 306 306 304 300 299 304 314 315 308 309 307 305 303 296 290 285 281 279 276 274
185 186 196 221 275 297 310 313 313 316 319 317 310 294 263 237 238 225 209 213 224 234 245 252 258 263 266 271 269 265 267 265 267 269 266 264 268 275 281 287 288 286 284 282 280 280 280 277 273 271 268 265 266 271 272 271 276 282 287 291 297 303 307 308 308 308 307 307 307 306 304 300 303 312 318 316 313 310 307 306 303 296 290 283 281 281 280 278
160 172 189 240 287 304 310 310 313 315 318 321 310 277 234 212 214 222 213 218 231 241 252 259 264 268 271 272 269 266 271 274 274 266 264 266 270 280 289 295 292 286 285 284 281 279 277 274 271 267 265 265 267 275 278 276 280 287 292 295 300 304 307 308 308 308 308 308 307 307 306 305 313 320 319 317 315 311 310 307 302 297 290 284 281 281 283 280
144 174 222 269 282 293 305 313 316 312 313 320 300 245 217 213 224 238 239 236 246 253 258 265 269 274 278 274 271 276 281 283 278 267 266 271 281 297 302 297 292 287 283 281 280 278 276 274 270 268 266 266 268 273 278 281 285 290 294 296 299 304 307 309 309 308 308 308 308 307 306 312 323 324 320 320 316 314 313 308 303 298 293 287 282 279 281 281
178 230 258 278 284 292 305 313 311 299 293 296 272 232 220 229 239 250 254 250 256 261 264 269 273 279 281 275 275 283 286 282 277 274 274 285 302 305 301 295 291 287 283 280 279 277 274 273 270 270 269 269 271 274 280 285 287 290 294 295 298 302 305 310 310 308 309 307 307 304 299 312 325 323 322 320 316 316 314 308 304 299 294 289 283 279 280 282
270 273 275 287 293 296 302 307 300 277 264 261 256 247 243 250 253 259 260 257 262 267 269 273 276 280 281 275 274 282 286 282 279 278 280 295 307 304 300 295 288 285 283 281 280 276 272 270 269 270 273 275 275 279 285 286 287 290 292 293 300 302 304 310 309 309 310 306 306 302 295 310 323 321 320 318 315 316 312 307 303 298 293 287 283 279 280 283
290 282 284 290 292 294 299 304 293 262 256 254 255 257 258 260 262 269 273 272 276 280 283 283 281 286 287 282 282 286 283 281 283 284 288 300 305 306 304 296 290 285 283 282 281 277 272 270 271 273 277 279 277 282 288 287 289 293 291 294 301 305 306 309 310 311 309 304 305 301 295 307 319 318 317 316 316 314 308 305 301 295 289 284 281 280 282 284
343 299 291 290 286 289 293 295 279 261 265 269 274 276 272 266 265 274 286 292 289 288 293 292 293 303 302 295 297 296 286 283 288 288 292 300 306 309 306 299 292 286 284 285 283 281 275 273 275 277 280 281 280 284 286 286 290 296 297 297 301 305 305 306 309 309 306 303 303 300 297 306 316 317 317 316 315 311 306 304 299 293 287 282 281 281 282 282
13 348 328 315 302 299 297 300 306 312 315 321 319 307 294 285 281 288 303 311 306 297 294 295 306 322 315 301 301 302 293 288 290 288 289 297 304 306 303 299 294 289 288 289 287 283 280 278 278 279 282 284 285 283 277 278 286 293 295 296 299 302 302 305 308 307 304 303 302 301 300 307 315 317 319 317 313 308 304 301 298 294 289 284 282 280 278 277
4 359 358 354 337 322 325 337 347 351 349 345 338 330 334 336 335 334 328 328 324 312 300 297 313 322 308 291 290 297 294 288 289 288 289 295 300 300 300 298 296 294 294 293 289 284 284 284 282 284 286 286 286 282 276 278 286 290 291 293 295 297 301 306 306 303 304 302 303 304 303 308 315 318 322 317 312 312 311 305 300 297 293 288 283 279 274 271
350 351 352 344 330 327 341 350 353 357 0 1 356 355 1 359 352 346 338 336 333 327 317 303 301 304 300 288 281 287 291 287 285 286 288 292 295 297 299 298 299 300 298 295 292 289 288 289 289 291 289 287 286 285 282 283 286 289 290 292 294 295 299 305 302 301 304 302 303 307 305 308 315 319 321 318 318 326 326 321 312 303 298 295 288 279 268 256
356 349 344 338 327 329 346 351 358 8 12 14 10 6 6 1 349 341 337 335 332 329 325 312 300 298 301 293 282 284 291 286 280 282 285 288 292 295 297 300 303 303 299 298 297 295 294 293 295 293 289 290 289 289 287 286 287 289 290 292 293 295 299 302 300 299 302 301 304 308 307 308 315 320 321 320 326 331 329 328 320 309 306 301 287 267 255 250
4 357 347 338 331 330 338 347 9 17 13 12 10 6 5 360 348 339 333 327 324 322 318 312 306 301 300 294 284 282 284 284 280 279 281 285 289 294 297 299 301 300 298 298 299 298 297 297 296 293 292 294 293 293 291 289 289 289 290 291 292 297 301 301 299 300 302 302 306 309 307 309 317 323 325 325 327 328 329 328 317 310 309 299 270 246 252 268
1 360 351 340 333 330 330 328 339 353 359 358 357 358 358 353 345 340 332 322 317 313 307 304 299 294 291 288 286 283 284 286 283 281 282 285 289 292 294 296 296 297 297 297 298 298 297 297 296 295 295 295 294 294 293 291 291 290 290 290 291 296 300 298 298 301 301 302 307 309 309 313 327 337 330 328 328 329 329 324 312 306 309 292 258 250 269 292
352 352 349 339 333 332 327 316 319 333 340 340 342 347 348 345 342 338 331 321 314 309 303 300 294 289 287 287 288 288 288 288 286 287 287 287 290 290 291 294 294 294 295 295 295 294 294 295 296 295 295 295 295 294 294 293 292 291 292 290 291 295 295 295 298 301 302 303 306 311 315 318 47 341 328 328 330 332 333 329 316 307 304 284 264 263 284 306
338 342 341 333 329 329 324 316 318 327 333 333 335 338 340 340 338 337 332 322 314 312 318 315 304 298 300 300 296 295 297 293 290 291 292 292 292 290 292 295 295 295 295 293 293 292 292 293 295 295 295 296 294 294 295 294 291 292 292 290 292 294 295 297 299 304 307 306 305 317 324 309 222 323 327 332 336 337 344 345 335 324 308 282 272 274 292 307
324 331 332 327 326 325 321 319 322 330 336 334 334 336 337 337 337 338 332 320 306 338 352 345 330 314 310 310 307 311 309 301 297 299 299 297 294 293 294 294 295 296 295 294 294 293 293 294 296 296 296 295 294 294 295 294 291 290 291 294 294 295 297 299 300 304 306 296 298 309 310 273 294 320 333 339 339 340 347 347 342 343 331 296 285 291 301 308
323 328 328 326 327 324 320 321 326 333 337 335 337 338 337 336 338 341 335 319 279 345 355 358 346 326 311 304 300 304 303 297 299 301 300 298 295 294 293 292 294 294 295 296 294 293 295 297 296 296 296 294 294 295 295 292 288 286 292 296 295 297 299 299 301 301 298 296 300 305 293 271 293 323 340 339 343 341 342 347 345 350 348 307 303 307 310 315
332 335 333 329 327 323 320 321 325 330 334 336 338 339 338 338 340 342 337 315 303 336 348 358 351 342 329 312 300 297 297 298 301 301 302 299 295 293 292 293 293 293 295 294 290 293 297 296 296 296 294 294 295 295 293 291 287 288 295 297 297 300 300 299 300 298 297 300 304 307 298 266 268 320 337 334 343 346 347 349 339 350 15 301 300 299 303 307
336 336 333 329 326 323 319 318 322 326 329 333 336 337 338 337 339 339 329 270 325 332 339 354 358 354 341 322 306 296 294 297 296 298 299 297 295 294 293 293 293 293 294 292 291 295 297 296 296 295 294 295 296 295 294 293 291 293 298 299 300 301 301 300 298 295 296 295 289 294 284 249 271 306 330 327 334 343 349 351 329 308 270 276 270 272 279 282
332 329 328 325 323 318 313 313 317 321 324 328 332 333 334 334 335 333 295 272 324 322 320 344 347 345 339 328 317 302 294 297 296 298 299 297 298 297 296 297 295 294 294 294 294 296 298 297 296 295 295 296 296 294 296 296 297 300 301 303 306 306 305 301 293 292 292 271 270 278 218 217 289 299 318 323 326 328 333 336 307 259 256 256 256 264 268 272
327 323 322 321 319 314 309 309 314 319 322 325 329 330 331 331 325 305 262 315 329 318 302 326 329 332 332 329 323 309 297 297 299 302 301 301 301 300 302 303 301 302 301 299 299 300 301 299 298 298 296 297 297 296 300 302 304 305 305 310 313 312 309 298 285 283 266 247 85 94 161 193 248 291 312 320 316 313 310 286 249 242 246 250 257 267 275 285
325 321 319 318 314 310 307 308 312 317 321 324 328 329 331 333 320 275 296 321 325 305 308 317 321 324 324 322 320 312 302 300 302 304 304 306 307 306 308 306 305 307 303 300 305 305 303 301 300 301 301 302 302 304 309 311 312 310 310 316 317 313 309 289 265 242 253 265 116 105 317 262 271 289 307 324 319 309 278 234 241 253 256 261 270 282 294 303
324 320 317 315 311 307 303 305 310 315 319 323 324 326 331 332 307 298 315 317 311 309 313 315 317 321 321 318 316 311 306 306 309 310 311 313 310 309 310 308 307 304 297 304 311 310 309 310 308 309 312 312 311 315 316 312 310 308 306 308 308 310 312 294 292 292 275 256 227 280 293 281 284 284 296 322 320 277 214 237 268 278 274 278 291 301 309 313
324 320 315 314 310 306 303 305 310 313 317 320 320 322 324 312 300 314 319 314 310 312 314 315 317 321 322 321 318 316 318 320 320 318 318 315 312 312 313 311 311 310 310 315 316 311 307 305 308 314 315 313 312 313 311 308 308 304 300 298 287 274 274 286 313 313 300 299 279 277 269 256 274 267 286 305 288 217 254 284 293 289 279 287 304 314 318 317
324 319 315 314 311 309 309 310 312 313 316 317 316 320 318 307 309 316 316 315 314 314 315 317 319 321 324 324 320 321 327 324 318 318 317 315 314 314 314 314 315 321 326 321 314 310 296 288 302 311 305 304 306 307 309 311 309 302 303 300 279 270 263 268 284 286 294 304 277 246 247 260 281 289 287 274 231 236 284 300 297 286 277 291 307 316 320 318
322 318 316 316 315 314 313 314 314 314 316 315 315 319 316 307 308 312 314 316 316 316 317 319 321 322 323 323 318 317 320 320 318 319 320 319 317 315 314 318 317 320 322 316 313 309 288 282 299 302 300 301 303 306 311 311 303 295 297 292 283 285 276 267 279 285 285 291 264 238 259 278 294 300 264 219 219 250 285 301 298 288 286 296 307 314 317 317
320 318 316 316 316 315 315 316 317 317 318 318 317 318 314 309 308 310 313 314 315 317 319 321 322 321 318 314 313 315 318 320 320 321 323 321 318 314 313 315 315 315 316 316 314 303 294 295 300 302 302 302 305 307 308 306 300 293 288 289 293 293 278 257 274 292 274 269 262 245 267 283 292 286 210 219 239 255 273 290 296 295 293 298 306 312 315 319
318 317 317 317 316 317 320 321 322 322 322 322 319 317 313 313 314 313 314 315 317 318 319 320 319 317 314 310 311 315 318 320 320 322 324 322 315 312 314 315 314 314 318 319 315 307 306 304 304 306 306 306 309 308 308 307 302 296 290 292 294 284 267 235 248 292 287 279 280 230 251 276 277 256 233 245 256 264 275 287 293 295 297 302 309 313 316 321
318 318 319 319 318 321 324 325 326 325 325 324 322 320 315 315 316 317 317 317 319 320 320 320 316 312 311 310 311 314 317 318 319 321 323 318 313 313 314 315 313 315 318 318 315 311 310 303 295 302 306 308 309 307 305 304 301 299 295 294 291 277 268 250 243 265 279 287 294 258 230 272 279 280 270 265 274 284 289 294 297 300 304 309 314 316 320 324
320 320 321 321 322 324 325 326 326 325 326 326 325 322 316 314 317 318 316 316 319 319 318 318 315 310 311 311 311 313 315 316 318 319 315 310 314 315 314 312 312 314 315 315 315 312 307 294 280 296 305 305 305 304 301 299 298 296 291 291 291 280 272 266 259 258 259 276 300 284 270 273 269 285 295 288 287 291 298 304 306 308 311 315 318 320 323 324
322 322 323 323 324 326 326 325 323 323 326 323 321 320 315 315 317 315 314 314 316 316 316 317 315 312 312 312 312 312 314 314 316 316 310 308 316 315 307 309 311 312 313 313 314 311 305 292 282 292 301 302 303 303 300 297 294 290 287 289 290 282 276 279 271 254 247 251 267 279 290 284 280 293 302 293 284 296 307 309 310 312 316 318 319 322 322 321
324 324 325 325 326 328 327 324 322 324 325 322 320 319 316 316 316 315 315 316 316 318 317 317 315 314 312 311 312 313 313 313 315 314 308 309 314 308 304 308 309 310 312 312 313 311 306 295 286 291 300 304 306 305 300 295 290 288 292 295 295 290 280 270 272 271 253 252 264 271 273 281 289 299 302 284 293 308 310 310 313 317 320 322 322 321 320 319
325 325 326 327 327 327 325 324 327 331 331 329 327 325 322 322 320 320 322 321 321 320 318 317 315 314 313 312 312 312 314 315 314 311 309 310 311 308 307 309 309 310 312 312 312 312 308 297 290 296 305 309 312 312 304 295 296 300 303 302 299 295 290 280 277 281 273 258 262 269 261 275 293 305 301 305 312 313 312 315 318 321 325 326 324 322 321 321
325 325 327 329 329 329 327 332 337 336 335 335 333 329 328 328 327 327 326 325 322 320 319 318 316 314 313 312 310 312 316 315 308 308 310 309 310 311 310 310 309 310 311 311 310 309 303 293 293 302 312 319 324 327 323 310 308 307 305 304 301 298 297 292 284 280 272 259 253 256 260 265 290 299 307 318 318 313 314 318 321 325 328 327 324 322 322 321
327 329 331 332 331 331 334 339 337 334 334 335 333 331 329 329 329 328 327 325 321 319 318 316 315 314 312 310 310 312 314 309 304 306 311 311 311 312 311 311 310 310 310 309 308 305 297 291 292 294 294 298 307 308 307 306 306 306 305 305 304 302 298 294 288 273 261 261 244 242 262 278 289 300 314 323 317 312 318 320 321 327 328 327 324 324 323 321
333 335 335 334 334 333 332 334 333 331 333 335 334 331 328 328 329 326 326 324 320 318 318 316 316 314 313 313 313 314 315 311 305 307 312 312 311 312 312 311 310 310 309 308 307 305 299 298 300 293 280 283 293 295 296 299 300 301 304 306 303 299 294 291 283 264 265 277 266 261 279 294 302 313 326 325 315 314 319 321 323 327 328 326 325 324 323 321
338 339 337 337 338 331 327 329 330 329 331 333 333 330 327 328 328 326 325 323 321 319 319 318 317 316 315 316 316 316 317 314 310 311 314 313 312 313 312 312 312 311 311 310 309 307 304 304 307 303 296 298 301 301 300 299 297 299 304 305 299 292 286 280 275 276 285 285 276 286 303 306 311 324 329 319 315 318 321 323 324 326 327 326 325 323 322 320
341 340 337 336 333 326 324 326 328 328 329 331 331 328 327 326 327 326 325 323 323 321 321 321 319 318 319 317 317 318 317 315 315 316 316 315 315 315 315 315 315 314 315 314 311 312 308 305 308 309 307 309 311 310 308 303 303 307 307 302 297 290 284 280 281 294 299 283 286 309 315 309 315 327 324 317 321 323 323 324 323 324 326 326 324 322 320 319
336 334 332 330 326 322 322 324 327 328 329 331 331 329 328 328 328 328 327 325 325 324 324 324 322 321 322 319 319 319 317 316 318 318 318 318 319 318 317 317 316 315 317 314 312 314 307 303 310 312 309 313 317 317 316 314 314 314 309 303 298 289 286 289 293 303 304 301 311 321 319 315 322 325 321 322 327 325 322 322 321 324 326 324 321 319 318 317
330 329 327 327 324 321 322 325 328 329 331 333 333 331 330 331 331 331 329 328 328 328 327 326 326 325 324 321 320 320 317 318 319 319 320 320 320 321 318 316 315 314 314 313 312 312 304 302 311 314 310 315 323 324 322 319 317 314 306 290 288 304 310 307 305 309 315 319 323 324 321 320 322 322 322 326 326 322 320 321 321 323 324 322 320 318 317 317
326 325 326 326 325 322 325 329 331 334 335 334 334 333 332 333 334 333 332 331 330 330 329 328 327 326 324 322 322 321 321 322 322 321 322 321 320 320 316 312 312 311 311 313 313 314 311 308 314 318 312 314 323 324 321 318 315 312 294 257 289 324 328 323 319 320 324 327 327 325 322 319 321 323 323 323 322 321 320 320 322 324 324 322 320 318 317 318
326 327 328 330 329 327 330 333 335 336 336 336 335 334 334 335 335 335 335 334 332 331 330 329 328 327 327 326 326 328 328 328 327 325 324 323 320 318 314 310 311 311 313 318 318 319 319 314 317 319 310 310 318 322 320 318 314 310 232 283 308 323 325 324 322 318 321 327 326 321 317 318 324 326 323 321 321 321 321 321 323 325 324 320 318 318 319 319